TimeCST,TemperatureF,Dew PointF,Humidity,Sea Level PressureIn,VisibilityMPH,Wind Direction,Wind SpeedMPH,Gust SpeedMPH,PrecipitationIn,Events,Conditions,WindDirDegrees,DateUTC
12:32 AM,-4.0,-11.9,69,30.23,10.0,Calm,Calm,-,N/A,,Overcast,0,2013-12-30 06:32:00
12:49 AM,-2.2,-11.2,66,30.23,10.0,Calm,Calm,-,N/A,,Overcast,0,2013-12-30 06:49:00
12:53 AM,-2.9,-11.9,65,30.33,10.0,Calm,Calm,-,N/A,,Overcast,0,2013-12-30 06:53:00
1:15 AM,-2.9,-11.0,68,30.21,10.0,South,3.5,-,N/A,,Overcast,170,2013-12-30 07:15:00
1:53 AM,-2.0,-9.9,69,30.31,10.0,SSE,5.8,-,N/A,,Mostly Cloudy,150,2013-12-30 07:53:00
2:02 AM,-0.9,-9.9,66,30.20,10.0,SSE,4.6,-,N/A,,Overcast,160,2013-12-30 08:02:00
2:53 AM,-0.9,-9.0,69,30.30,10.0,SSE,8.1,-,N/A,,Mostly Cloudy,160,2013-12-30 08:53:00
3:53 AM,-0.0,-8.0,69,30.28,10.0,SSE,6.9,-,N/A,,Overcast,150,2013-12-30 09:53:00
4:53 AM,1.0,-9.0,63,30.25,10.0,SSE,11.5,-,N/A,,Overcast,160,2013-12-30 10:53:00
5:53 AM,1.0,-9.9,60,30.24,10.0,SSE,11.5,-,N/A,,Overcast,150,2013-12-30 11:53:00
6:53 AM,1.0,-9.0,63,30.23,10.0,SSE,12.7,-,N/A,,Overcast,150,2013-12-30 12:53:00
7:53 AM,3.0,-9.0,57,30.24,8.0,SSE,11.5,-,0.00,Snow,Light Snow,160,2013-12-30 13:53:00
8:10 AM,3.0,-7.1,63,30.13,1.8,SSE,12.7,-,0.00,Snow,Light Snow,160,2013-12-30 14:10:00
8:53 AM,3.9,-2.9,73,30.23,1.5,SSE,13.8,-,0.00,Snow,Light Snow,150,2013-12-30 14:53:00
9:07 AM,3.9,-2.0,76,30.11,1.2,SSE,12.7,-,0.00,Snow,Light Snow,150,2013-12-30 15:07:00
9:23 AM,5.0,-0.9,76,30.11,0.8,SSE,11.5,-,0.00,Snow,Light Snow,150,2013-12-30 15:23:00
9:34 AM,5.0,-0.9,76,30.11,1.0,SSE,11.5,-,0.00,Snow,Light Snow,160,2013-12-30 15:34:00
9:53 AM,6.1,-0.0,76,30.22,1.0,SSE,17.3,-,0.00,Snow,Light Snow,150,2013-12-30 15:53:00
10:22 AM,7.0,1.0,77,30.10,2.0,SSE,17.3,-,0.00,Snow,Light Snow,150,2013-12-30 16:22:00
10:34 AM,7.0,1.0,77,30.09,4.0,SSE,16.1,-,0.00,Snow,Light Snow,150,2013-12-30 16:34:00
10:53 AM,8.1,1.9,76,30.21,4.0,SSE,15.0,-,0.00,Snow,Light Snow,160,2013-12-30 16:53:00
11:53 AM,9.0,3.0,77,30.16,10.0,SSE,17.3,-,0.00,,Overcast,160,2013-12-30 17:53:00
12:22 PM,10.0,3.9,76,30.05,8.0,South,15.0,-,N/A,,Overcast,170,2013-12-30 18:22:00
12:53 PM,10.9,5.0,77,30.14,2.0,SSE,13.8,-,0.00,Snow,Light Snow,160,2013-12-30 18:53:00
1:00 PM,10.9,6.1,81,30.04,1.0,SSE,12.7,-,0.00,Snow,Light Snow,160,2013-12-30 19:00:00
1:02 PM,10.9,6.1,81,30.04,0.8,SSE,12.7,-,0.00,Snow,Light Snow,160,2013-12-30 19:02:00
1:14 PM,10.9,6.1,81,30.03,1.0,SSE,9.2,-,0.00,Snow,Light Snow,160,2013-12-30 19:14:00
1:26 PM,12.0,7.0,80,30.03,1.2,SSE,10.4,-,0.00,Snow,Light Snow,160,2013-12-30 19:26:00
1:44 PM,12.9,6.1,74,30.03,2.5,South,10.4,-,0.00,Snow,Light Snow,190,2013-12-30 19:44:00
1:53 PM,12.9,7.0,77,30.12,1.8,South,11.5,-,0.00,Snow,Light Snow,190,2013-12-30 19:53:00
2:39 PM,12.9,7.0,77,30.04,3.0,South,6.9,-,0.00,Snow,Light Snow,170,2013-12-30 20:39:00
2:53 PM,12.9,7.0,77,30.14,5.0,South,6.9,-,0.00,Snow,Light Snow,180,2013-12-30 20:53:00
3:31 PM,12.9,7.0,77,30.06,2.5,South,4.6,-,0.00,Snow,Light Snow,190,2013-12-30 21:31:00
3:48 PM,12.2,8.6,85,30.06,1.2,South,5.8,-,0.00,Snow,Light Snow,190,2013-12-30 21:48:00
3:53 PM,12.9,8.1,81,30.15,1.2,South,4.6,-,0.00,Snow,Light Snow,190,2013-12-30 21:53:00
4:09 PM,12.9,8.1,81,30.06,3.0,Calm,Calm,-,0.00,Snow,Light Snow,0,2013-12-30 22:09:00
4:53 PM,14.0,8.1,77,30.18,6.0,Calm,Calm,-,0.00,Snow,Light Snow,0,2013-12-30 22:53:00
5:22 PM,14.0,9.0,80,30.11,5.0,NW,3.5,-,0.00,Snow,Light Snow,310,2013-12-30 23:22:00
5:53 PM,12.0,8.1,84,30.21,5.0,NW,3.5,-,0.00,Snow,Light Snow,320,2013-12-30 23:53:00
6:40 PM,3.0,-0.0,87,30.14,7.0,NW,6.9,-,0.00,,Mostly Cloudy,310,2013-12-31 00:40:00
6:53 PM,1.0,-2.0,87,30.26,10.0,WNW,8.1,-,0.00,,Mostly Cloudy,300,2013-12-31 00:53:00
7:08 PM,3.9,1.0,88,30.16,9.0,WNW,6.9,-,N/A,,Mostly Cloudy,300,2013-12-31 01:08:00
7:29 PM,3.9,-0.0,84,30.16,10.0,NW,9.2,-,N/A,,Scattered Clouds,310,2013-12-31 01:29:00
7:53 PM,1.9,-2.9,80,30.27,10.0,NW,6.9,-,N/A,,Clear,320,2013-12-31 01:53:00
8:53 PM,1.9,-2.0,83,30.29,10.0,NW,6.9,-,N/A,,Clear,310,2013-12-31 02:53:00
9:53 PM,-2.0,-6.0,83,30.32,10.0,NW,6.9,-,N/A,,Clear,310,2013-12-31 03:53:00
10:53 PM,-2.0,-7.1,79,30.32,10.0,WNW,8.1,-,N/A,,Clear,300,2013-12-31 04:53:00
11:53 PM,-6.0,-11.0,79,30.32,10.0,West,8.1,-,N/A,,Clear,270,2013-12-31 05:53:00